Location: Austin
(30.3000°N, 97.7500°W)
Time: 23:12:31
(UTC-05:00)

Cosmos 1420 Rocket - Pass Details

Date: 06 May 2026
Orbit: 749 x 777 km, 74.0° (Epoch: 13 May)

Event Time Altitude Azimuth Distance (km) Brightness Sun altitude
Rises 20:28:31 0° 186° (S) 3,215 7.1 -4.1°
Reaches altitude 10° 20:30:53 10° 182° (S) 2,296 6.3 -4.6°
Maximum altitude 20:36:01 61° 103° (ESE) 871 4.1 -5.6°
Drops below altitude 10° 20:41:13 10° 24° (NNE) 2,323 6.5 -6.6°
Sets 20:43:38 0° 21° (NNE) 3,256 7.3 -7.1°
